| time (UTC) | temp C | wind direction | speed KPH | gust KPH | rain 1hr cm | rain 24hr cm | rain mn cm | humidity % | barometer mb |
| 20260507231308 | 13 | 18 | 0.0 | 8.0 | 0.00 | 0.00 | 0.00 | 46 | 1008.3 |
| 20260507230320 | 14 | 105 | 0.0 | 12.9 | 0.00 | 0.00 | 0.00 | 43 | 1008.5 |
| 20260507225253 | 15 | 88 | 0.0 | 6.4 | 0.00 | 0.00 | 0.00 | 45 | 1008.4 |
| 20260507224235 | 15 | 38 | 0.0 | 0.0 | 0.00 | 0.00 | 0.00 | 44 | 1008.1 |
| 20260507223205 | 16 | 124 | 0.0 | 6.4 | 0.00 | 0.00 | 0.00 | 41 | 1008.0 |
| 20260507222220 | 16 | 109 | 0.0 | 4.8 | 0.00 | 0.00 | 0.00 | 44 | 1007.7 |
| 20260507220106 | 16 | 69 | 0.0 | 0.0 | 0.00 | 0.00 | 0.00 | 41 | 1007.6 |
| 20260507215113 | 17 | 112 | 0.0 | 4.8 | 0.00 | 0.00 | 0.00 | 42 | 1007.4 |
| 20260507214135 | 17 | 105 | 0.0 | 3.2 | 0.00 | 0.00 | 0.00 | 43 | 1007.3 |
| 20260507213132 | 16 | 71 | 0.0 | 3.2 | 0.00 | 0.00 | 0.00 | 42 | 1007.4 |
| 20260507212139 | 17 | 123 | 0.0 | 4.8 | 0.00 | 0.00 | 0.00 | 41 | 1007.4 |
| 20260507205953 | 17 | 38 | 0.0 | 0.0 | 0.00 | 0.00 | 0.00 | 43 | 1007.2 |
| 20260507204922 | 18 | 67 | 0.0 | 9.7 | 0.00 | 0.00 | 0.00 | 40 | 1007.1 |
| 20260507203917 | 18 | 124 | 0.0 | 12.9 | 0.00 | 0.00 | 0.00 | 39 | 1007.0 |
| 20260507202914 | 18 | 108 | 0.0 | 0.0 | 0.00 | 0.00 | 0.00 | 43 | 1007.0 |
| 20260507201906 | 18 | 93 | 0.0 | 0.0 | 0.00 | 0.00 | 0.00 | 39 | 1007.2 |
| 20260507200902 | 18 | 101 | 0.0 | 0.0 | 0.00 | 0.00 | 0.00 | 41 | 1007.0 |
| 20260507195840 | 18 | 71 | 0.0 | 4.8 | 0.00 | 0.00 | 0.00 | 40 | 1007.0 |
| 20260507194815 | 18 | 119 | 0.0 | 0.0 | 0.00 | 0.00 | 0.00 | 43 | 1007.1 |
| 20260507193838 | 18 | 103 | 0.0 | 12.9 | 0.00 | 0.00 | 0.00 | 42 | 1007.4 |
| 20260507192848 | 19 | 69 | 0.0 | 16.1 | 0.00 | 0.00 | 0.00 | 39 | 1007.3 |
| 20260507191825 | 18 | 58 | 0.0 | 12.9 | 0.00 | 0.00 | 0.00 | 43 | 1007.5 |
| 20260507190844 | 18 | 67 | 0.0 | 4.8 | 0.00 | 0.00 | 0.00 | 42 | 1007.6 |
| 20260507185842 | 18 | 63 | 0.0 | 6.4 | 0.00 | 0.00 | 0.00 | 46 | 1007.7 |
| 20260507183658 | 17 | 103 | 0.0 | 11.3 | 0.00 | 0.00 | 0.00 | 45 | 1007.8 |
| 20260507180419 | 17 | 120 | 0.0 | 6.4 | 0.00 | 0.00 | 0.00 | 46 | 1008.0 |
| 20260507175400 | 17 | 17 | 0.0 | 8.0 | 0.00 | 0.00 | 0.00 | 49 | 1008.2 |
| 20260507174408 | 17 | 39 | 0.0 | 9.7 | 0.00 | 0.00 | 0.00 | 47 | 1008.3 |
| 20260507172235 | 17 | 55 | 1.6 | 16.1 | 0.00 | 0.00 | 0.00 | 51 | 1008.6 |
| 20260507171210 | 16 | 27 | 0.0 | 8.0 | 0.00 | 0.00 | 0.00 | 54 | 1008.8 |
| 20260507170205 | 15 | 85 | 0.0 | 12.9 | 0.00 | 0.00 | 0.00 | 57 | 1008.8 |
| 20260507164019 | 15 | 74 | 0.0 | 0.0 | 0.00 | 0.00 | 0.00 | 61 | 1009.4 |
| 20260507163000 | 15 | 68 | 0.0 | 0.0 | 0.00 | 0.00 | 0.00 | 58 | 1009.5 |
| 20260507160826 | 15 | 60 | 0.0 | 8.0 | 0.00 | 0.00 | 0.00 | 59 | 1009.7 |
| 20260507155844 | 14 | 57 | 0.0 | 0.0 | 0.00 | 0.00 | 0.00 | 58 | 1009.9 |
| 20260507154833 | 13 | 70 | 0.0 | 0.0 | 0.00 | 0.00 | 0.00 | 62 | 1010.0 |
| 20260507153759 | 13 | 43 | 0.0 | 4.8 | 0.00 | 0.00 | 0.00 | 60 | 1010.1 |
| 20260507152731 | 13 | 71 | 0.0 | 0.0 | 0.00 | 0.00 | 0.00 | 62 | 1010.3 |
| 20260507151708 | 13 | 71 | 0.0 | 3.2 | 0.00 | 0.00 | 0.00 | 60 | 1010.2 |
| 20260507150646 | 13 | 76 | 0.0 | 3.2 | 0.00 | 0.00 | 0.00 | 61 | 1010.3 |
| 20260507145613 | 12 | 96 | 0.0 | 0.0 | 0.00 | 0.00 | 0.00 | 62 | 1010.4 |
| 20260507144544 | 12 | 96 | 0.0 | 1.6 | 0.00 | 0.00 | 0.00 | 61 | 1010.6 |
| 20260507143603 | 12 | 94 | 0.0 | 0.0 | 0.00 | 0.00 | 0.00 | 64 | 1010.7 |
| 20260507141455 | 11 | 74 | 0.0 | 0.0 | 0.00 | 0.00 | 0.00 | 67 | 1010.9 |
| 20260507110357 | 8 | 95 | 0.0 | 0.0 | 0.00 | 0.20 | 0.00 | 49 | 1011.0 |
| 20260507105418 | 8 | 95 | 0.0 | 0.0 | 0.00 | 0.23 | 0.00 | 49 | 1010.9 |
| 20260507104405 | 8 | 95 | 0.0 | 0.0 | 0.00 | 0.23 | 0.00 | 52 | 1010.9 |
| 20260507103409 | 8 | 95 | 0.0 | 0.0 | 0.00 | 0.23 | 0.00 | 52 | 1011.0 |
| 20260507102433 | 8 | 95 | 0.0 | 0.0 | 0.00 | 0.23 | 0.00 | 52 | 1010.7 |
| 20260507100241 | 8 | 95 | 0.0 | 0.0 | 0.00 | 0.23 | 0.00 | 54 | 1010.3 |
| 20260507095259 | 8 | 95 | 0.0 | 0.0 | 0.00 | 0.23 | 0.00 | 56 | 1010.2 |
| 20260507094312 | 8 | 95 | 0.0 | 0.0 | 0.00 | 0.23 | 0.00 | 54 | 1010.4 |
| 20260507093255 | 8 | 95 | 0.0 | 0.0 | 0.00 | 0.23 | 0.00 | 52 | 1010.4 |
| 20260507092228 | 8 | 95 | 0.0 | 0.0 | 0.00 | 0.23 | 0.00 | 52 | 1010.2 |
| 20260507091240 | 8 | 95 | 0.0 | 0.0 | 0.00 | 0.23 | 0.00 | 54 | 1010.3 |
| 20260507090242 | 8 | 95 | 0.0 | 0.0 | 0.00 | 0.23 | 0.00 | 56 | 1010.0 |
| 20260507083017 | 8 | 94 | 0.0 | 0.0 | 0.00 | 0.23 | 0.00 | 54 | 1010.3 |
| 20260507082028 | 8 | 94 | 0.0 | 0.0 | 0.00 | 0.23 | 0.00 | 53 | 1010.1 |
| 20260507081003 | 8 | 94 | 0.0 | 0.0 | 0.00 | 0.23 | 0.00 | 56 | 1010.1 |
| 20260507080003 | 8 | 94 | 0.0 | 0.0 | 0.00 | 0.23 | 0.00 | 56 | 1010.4 |
| 20260507074947 | 8 | 94 | 0.0 | 0.0 | 0.00 | 0.23 | 0.00 | 56 | 1010.4 |
| 20260507074008 | 8 | 94 | 0.0 | 0.0 | 0.00 | 0.23 | 0.00 | 56 | 1010.1 |
| 20260507072935 | 8 | 93 | 0.0 | 0.0 | 0.00 | 0.23 | 0.00 | 56 | 1010.0 |
| 20260507065629 | 8 | 92 | 0.0 | 0.0 | 0.00 | 0.23 | 0.00 | 46 | 1009.9 |
| 20260507064647 | 8 | 92 | 0.0 | 6.4 | 0.00 | 0.23 | 0.00 | 47 | 1010.0 |
| 20260507062551 | 8 | 92 | 0.0 | 0.0 | 0.00 | 0.23 | 0.00 | 39 | 1010.2 |
| 20260507061613 | 8 | 92 | 0.0 | 0.0 | 0.00 | 0.23 | 0.00 | 40 | 1010.4 |
| 20260507060601 | 9 | 90 | 0.0 | 0.0 | 0.00 | 0.23 | 0.00 | 38 | 1010.3 |
| 20260507055607 | 9 | 88 | 0.0 | 0.0 | 0.00 | 0.23 | 0.00 | 35 | 1010.5 |
| 20260507054544 | 9 | 126 | 0.0 | 4.8 | 0.00 | 0.23 | 0.00 | 35 | 1010.6 |
| 20260507053519 | 9 | 131 | 0.0 | 4.8 | 0.00 | 0.23 | 0.00 | 33 | 1010.6 |
| 20260507052507 | 10 | 131 | 0.0 | 8.0 | 0.00 | 0.23 | 0.00 | 33 | 1010.3 |
| 20260507051458 | 10 | 130 | 0.0 | 0.0 | 0.00 | 0.23 | 0.00 | 36 | 1010.2 |
| 20260507050509 | 10 | 130 | 0.0 | 0.0 | 0.00 | 0.23 | 0.00 | 36 | 1010.2 |
| 20260507045454 | 10 | 130 | 0.0 | 6.4 | 0.00 | 0.23 | 0.00 | 38 | 1009.9 |
| 20260507044501 | 10 | 130 | 0.0 | 6.4 | 0.00 | 0.23 | 0.00 | 36 | 1009.8 |
| 20260507043454 | 10 | 136 | 0.0 | 8.0 | 0.00 | 0.23 | 0.00 | 34 | 1010.0 |
| 20260507042443 | 11 | 128 | 0.0 | 0.0 | 0.00 | 0.23 | 0.00 | 30 | 1009.8 |
| 20260507041439 | 11 | 140 | 0.0 | 6.4 | 0.00 | 0.23 | 0.00 | 30 | 1009.6 |
| 20260507040504 | 11 | 170 | 0.0 | 0.0 | 0.00 | 0.23 | 0.00 | 31 | 1009.3 |
| 20260507035516 | 11 | 133 | 0.0 | 0.0 | 0.00 | 0.23 | 0.23 | 30 | 1009.5 |
| 20260507034450 | 11 | 133 | 0.0 | 6.4 | 0.00 | 0.23 | 0.23 | 33 | 1009.9 |
| 20260507033428 | 11 | 142 | 0.0 | 0.0 | 0.00 | 0.23 | 0.23 | 34 | 1009.3 |
| 20260507032446 | 11 | 130 | 0.0 | 4.8 | 0.00 | 0.23 | 0.23 | 35 | 1009.7 |
| 20260507031446 | 12 | 139 | 0.0 | 0.0 | 0.00 | 0.23 | 0.23 | 34 | 1009.7 |
| 20260507030455 | 12 | 139 | 0.0 | 0.0 | 0.00 | 0.23 | 0.23 | 34 | 1009.9 |
| 20260507025445 | 12 | 139 | 0.0 | 4.8 | 0.00 | 0.23 | 0.23 | 35 | 1009.8 |
| 20260507024410 | 12 | 235 | 0.0 | 0.0 | 0.00 | 0.23 | 0.23 | 33 | 1009.0 |
| 20260507023427 | 12 | 243 | 0.0 | 0.0 | 0.00 | 0.23 | 0.23 | 32 | 1009.3 |
| 20260507021240 | 12 | 103 | 0.0 | 3.2 | 0.00 | 0.23 | 0.23 | 34 | 1009.8 |
| 20260507020228 | 12 | 103 | 0.0 | 3.2 | 0.00 | 0.23 | 0.23 | 32 | 1009.2 |
| 20260507015159 | 13 | 103 | 0.0 | 0.0 | 0.00 | 0.23 | 0.23 | 33 | 1008.4 |
| 20260507014129 | 13 | 103 | 0.0 | 0.0 | 0.00 | 0.23 | 0.23 | 34 | 1008.6 |
| 20260507013056 | 13 | 103 | 0.0 | 4.8 | 0.00 | 0.23 | 0.23 | 33 | 1009.0 |
| 20260507012113 | 13 | 101 | 0.0 | 0.0 | 0.00 | 0.23 | 0.23 | 32 | 1008.9 |
| 20260507011044 | 13 | 101 | 0.0 | 0.0 | 0.00 | 0.23 | 0.23 | 36 | 1008.6 |
| 20260507010046 | 13 | 101 | 0.0 | 0.0 | 0.00 | 0.23 | 0.23 | 38 | 1008.1 |
| 20260507005037 | 14 | 101 | 0.0 | 0.0 | 0.00 | 0.23 | 0.23 | 41 | 1008.6 |
| 20260507004014 | 14 | 101 | 0.0 | 0.0 | 0.00 | 0.23 | 0.23 | 39 | 1008.6 |
| 20260507003018 | 14 | 101 | 0.0 | 1.6 | 0.00 | 0.23 | 0.23 | 41 | 1008.6 |
| 20260507002027 | 14 | 96 | 0.0 | 0.0 | 0.00 | 0.23 | 0.23 | 39 | 1008.7 |
| 20260507001017 | 15 | 96 | 0.0 | 0.0 | 0.00 | 0.23 | 0.23 | 42 | 1008.3 |
| 20260506234855 | 15 | 96 | 0.0 | 0.0 | 0.00 | 0.23 | 0.23 | 47 | 1008.4 |
| 20260506233821 | 15 | 96 | 0.0 | 0.0 | 0.00 | 0.23 | 0.23 | 49 | 1008.3 |
| 20260506232826 | 16 | 96 | 0.0 | 0.0 | 0.00 | 0.23 | 0.23 | 50 | 1008.2 |